,,,PA_Meas_PMT16A,,PR_Meas_QMR101_102,,RH_Meas_QMH101,,SR_Meas_QMS101,,TA_Meas_QMH101,,GenWind,,GenWind,
date,time,status,PA,status,PR,status,RH,status,SR,status,TA,status,DirAvg,status,SpdAvg,
2012-12-21, 00:00:05,VALID,1008.66,VALID,0,VALID,104,VALID,0,VALID,24.5125,VALID,30,VALID,0.421484,
2012-12-21, 00:01:05,VALID,1008.64,VALID,0,VALID,104,VALID,0,VALID,24.5125,VALID,89,VALID,0.801172,
2012-12-21, 00:02:05,VALID,1008.62,VALID,0,VALID,104,VALID,0,VALID,24.5125,VALID,125,VALID,0.716016,
2012-12-21, 00:03:05,VALID,1008.65,VALID,0,VALID,104,VALID,0,VALID,24.532,VALID,125,VALID,0.711719,
2012-12-21, 00:04:05,VALID,1008.63,VALID,0,VALID,104,VALID,0,VALID,24.571,VALID,157,VALID,0.846094,
2012-12-21, 00:05:05,VALID,1008.64,VALID,0,VALID,104,VALID,0,VALID,24.5515,VALID,140,VALID,0.780859,
2012-12-21, 00:06:05,VALID,1008.68,VALID,0,VALID,104,VALID,0,VALID,24.532,VALID,141,VALID,0.5875,
2012-12-21, 00:07:05,VALID,1008.68,VALID,0,VALID,104,VALID,0,VALID,24.532,VALID,158,VALID,0.929297,
2012-12-21, 00:08:05,VALID,1008.66,VALID,0,VALID,104,VALID,0,VALID,24.5515,VALID,151,VALID,0.350391,
2012-12-21, 00:09:05,VALID,1008.68,VALID,0,VALID,104,VALID,0,VALID,24.5515,VALID,151,VALID,0.219531,
2012-12-21, 00:10:05,VALID,1008.66,VALID,0,VALID,104,VALID,0,VALID,24.532,VALID,150,VALID,0.569141,
2012-12-21, 00:11:05,VALID,1008.65,VALID,0,VALID,104,VALID,0,VALID,24.532,VALID,151,VALID,0.697266,
2012-12-21, 00:12:05,VALID,1008.65,VALID,0,VALID,104,VALID,0,VALID,24.5125,VALID,145,VALID,0.682813,
2012-12-21, 00:13:05,VALID,1008.59,VALID,0,VALID,104,VALID,0,VALID,24.532,VALID,146,VALID,0.560156,
2012-12-21, 00:14:05,VALID,1008.58,VALID,0,VALID,104,VALID,0,VALID,24.5125,VALID,158,VALID,0.705859,
2012-12-21, 00:15:05,VALID,1008.57,VALID,0,VALID,104,VALID,0,VALID,24.5125,VALID,162,VALID,0.81875,
2012-12-21, 00:16:05,VALID,1008.59,VALID,0,VALID,104,VALID,0,VALID,24.493,VALID,168,VALID,0.879297,
2012-12-21, 00:17:05,VALID,1008.59,VALID,0,VALID,104,VALID,0,VALID,24.5125,VALID,171,VALID,0.789063,
2012-12-21, 00:18:05,VALID,1008.59,VALID,0,VALID,104,VALID,0,VALID,24.493,VALID,166,VALID,0.55625,
2012-12-21, 00:19:05,VALID,1008.56,VALID,0,VALID,104,VALID,0,VALID,24.454,VALID,166,VALID,0.70625,
2012-12-21, 00:20:05,VALID,1008.54,VALID,0,VALID,104,VALID,0,VALID,24.4522,VALID,166,VALID,0.475391,
2012-12-21, 00:21:05,VALID,1008.55,VALID,0,VALID,104,VALID,0,VALID,24.454,VALID,166,VALID,0.432813,
2012-12-21, 00:22:05,VALID,1008.54,VALID,0,VALID,104,VALID,0,VALID,24.4735,VALID,161,VALID,0.423438,
2012-12-21, 00:23:05,VALID,1008.53,VALID,0,VALID,104,VALID,0,VALID,24.4735,VALID,161,VALID,0.479688,
2012-12-21, 00:24:05,VALID,1008.51,VALID,0,VALID,104,VALID,0,VALID,24.4735,VALID,161,VALID,0.328516,
2012-12-21, 00:25:05,VALID,1008.49,VALID,0,VALID,104,VALID,0,VALID,24.4735,VALID,161,VALID,0.225,
2012-12-21, 00:26:05,VALID,1008.48,VALID,0,VALID,104,VALID,0,VALID,24.4735,VALID,161,VALID,0,
2012-12-21, 00:27:05,VALID,1008.49,VALID,0,VALID,104,VALID,0,VALID,24.4735,VALID,161,VALID,0,
2012-12-21, 00:28:05,VALID,1008.46,VALID,0,VALID,104,VALID,0,VALID,24.493,VALID,161,VALID,0,
2012-12-21, 00:29:05,VALID,1008.47,VALID,0,VALID,104,VALID,0,VALID,24.493,VALID,161,VALID,0,
2012-12-21, 00:30:05,VALID,1008.47,VALID,0,VALID,104,VALID,0,VALID,24.4735,VALID,161,VALID,0.407422,
2012-12-21, 00:31:05,VALID,1008.47,VALID,0,VALID,104,VALID,0,VALID,24.4735,VALID,161,VALID,0.300781,
2012-12-21, 00:32:05,VALID,1008.47,VALID,0,VALID,104,VALID,0,VALID,24.4522,VALID,161,VALID,0.508984,
2012-12-21, 00:33:05,VALID,1008.43,VALID,0,VALID,104,VALID,0,VALID,24.454,VALID,161,VALID,0.570313,
2012-12-21, 00:34:05,VALID,1008.44,VALID,0,VALID,104,VALID,0,VALID,24.4345,VALID,161,VALID,0.395312,
2012-12-21, 00:35:05,VALID,1008.4,VALID,0,VALID,104,VALID,0,VALID,24.415,VALID,161,VALID,0.583203,
2012-12-21, 00:36:05,VALID,1008.38,VALID,0,VALID,104,VALID,0,VALID,24.415,VALID,161,VALID,0.434766,
2012-12-21, 00:37:05,VALID,1008.34,VALID,0,VALID,104,VALID,0,VALID,24.4169,VALID,161,VALID,0.348828,
2012-12-21, 00:38:05,VALID,1008.31,VALID,0,VALID,104,VALID,0,VALID,24.3547,VALID,305,VALID,0.883984,
2012-12-21, 00:39:05,VALID,1008.31,VALID,0,VALID,104,VALID,0,VALID,24.3761,VALID,305,VALID,0.46875,
2012-12-21, 00:40:05,VALID,1008.26,VALID,0,VALID,104,VALID,0,VALID,24.3566,VALID,306,VALID,0.327734,
2012-12-21, 00:41:05,VALID,1008.26,VALID,0,VALID,104,VALID,0,VALID,24.3761,VALID,306,VALID,0.183203,
2012-12-21, 00:42:05,VALID,1008.23,VALID,0,VALID,104,VALID,0,VALID,24.3352,VALID,305,VALID,0.244531,
2012-12-21, 00:43:05,VALID,1008.23,VALID,0,VALID,104,VALID,0,VALID,24.3371,VALID,305,VALID,0.358203,
2012-12-21, 00:44:05,VALID,1008.19,VALID,0,VALID,104,VALID,0,VALID,24.3566,VALID,305,VALID,0.298828,
2012-12-21, 00:45:05,VALID,1008.19,VALID,0,VALID,104,VALID,0,VALID,24.2981,VALID,305,VALID,0.445313,
2012-12-21, 00:46:05,VALID,1008.15,VALID,0,VALID,104,VALID,0,VALID,24.2981,VALID,305,VALID,0.585547,
2012-12-21, 00:47:05,VALID,1008.13,VALID,0,VALID,104,VALID,0,VALID,24.2786,VALID,305,VALID,0.444141,
2012-12-21, 00:48:05,VALID,1008.11,VALID,0,VALID,104,VALID,0,VALID,24.2573,VALID,305,VALID,0.444922,
2012-12-21, 00:49:05,VALID,1008.07,VALID,0,VALID,104,VALID,0,VALID,24.2591,VALID,305,VALID,0.249609,
2012-12-21, 00:50:05,VALID,1008.05,VALID,0,VALID,104,VALID,0.112112,VALID,24.2591,VALID,305,VALID,0.178906,
2012-12-21, 00:51:05,VALID,1008.06,VALID,0,VALID,104,VALID,0,VALID,24.2591,VALID,305,VALID,0.324219,
2012-12-21, 00:52:05,VALID,1008.05,VALID,0,VALID,104,VALID,0,VALID,24.2396,VALID,305,VALID,0.370313,
2012-12-21, 00:53:05,VALID,1008.05,VALID,0,VALID,104,VALID,0,VALID,24.2183,VALID,305,VALID,0.304297,
2012-12-21, 00:54:05,VALID,1008.04,VALID,0,VALID,104,VALID,0,VALID,24.2183,VALID,305,VALID,0.383984,
2012-12-21, 00:55:05,VALID,1008.04,VALID,0,VALID,104,VALID,0,VALID,24.2591,VALID,329,VALID,0.385938,
2012-12-21, 00:56:05,VALID,1008,VALID,0,VALID,104,VALID,0,VALID,24.2396,VALID,329,VALID,0.284375,
2012-12-21, 00:57:05,VALID,1007.99,VALID,0,VALID,104,VALID,0.112112,VALID,24.2396,VALID,329,VALID,0.172266,
2012-12-21, 00:58:05,VALID,1007.99,VALID,0,VALID,104,VALID,0,VALID,24.2396,VALID,329,VALID,0.171484,
2012-12-21, 00:59:05,VALID,1007.99,VALID,0,VALID,104,VALID,0.112112,VALID,24.2396,VALID,329,VALID,0.219922,
2012-12-21, 01:00:05,VALID,1007.96,VALID,0,VALID,104,VALID,0,VALID,24.2202,VALID,329,VALID,0,
2012-12-21, 01:01:05,VALID,1007.95,VALID,0,VALID,104,VALID,0,VALID,24.2007,VALID,329,VALID,0,
2012-12-21, 01:02:05,VALID,1007.96,VALID,0,VALID,104,VALID,0,VALID,24.2007,VALID,329,VALID,0,
2012-12-21, 01:03:05,VALID,1007.95,VALID,0,VALID,104,VALID,0,VALID,24.2202,VALID,329,VALID,0,
2012-12-21, 01:04:05,VALID,1007.95,VALID,0,VALID,104,VALID,0,VALID,24.2007,VALID,329,VALID,0,
2012-12-21, 01:05:05,VALID,1007.94,VALID,0,VALID,104,VALID,0,VALID,24.2202,VALID,329,VALID,0,
2012-12-21, 01:06:05,VALID,1007.92,VALID,0,VALID,104,VALID,0,VALID,24.2202,VALID,329,VALID,0,
2012-12-21, 01:07:05,VALID,1007.89,VALID,0,VALID,104,VALID,0,VALID,24.1988,VALID,329,VALID,0,
2012-12-21, 01:08:05,VALID,1007.88,VALID,0,VALID,104,VALID,0,VALID,24.2202,VALID,329,VALID,0,
2012-12-21, 01:09:05,VALID,1007.89,VALID,0,VALID,104,VALID,0.112112,VALID,24.2202,VALID,329,VALID,0,
2012-12-21, 01:10:05,VALID,1007.91,VALID,0,VALID,104,VALID,0,VALID,24.1793,VALID,329,VALID,0,
2012-12-21, 01:11:05,VALID,1007.92,VALID,0,VALID,104,VALID,0,VALID,24.1812,VALID,329,VALID,0.166016,
2012-12-21, 01:12:05,VALID,1007.92,VALID,0,VALID,104,VALID,0,VALID,24.1209,VALID,329,VALID,0.341016,
2012-12-21, 01:13:05,VALID,1007.92,VALID,0,VALID,104,VALID,0,VALID,24.1422,VALID,329,VALID,0.329688,
2012-12-21, 01:14:05,VALID,1007.95,VALID,0,VALID,104,VALID,0,VALID,24.1032,VALID,329,VALID,0.180078,
2012-12-21, 01:15:05,VALID,1007.95,VALID,0,VALID,104,VALID,0,VALID,24.0624,VALID,329,VALID,0.180078,
2012-12-21, 01:16:05,VALID,1007.97,VALID,0,VALID,104,VALID,0,VALID,24.0448,VALID,329,VALID,0.178516,
2012-12-21, 01:17:05,VALID,1007.98,VALID,0,VALID,104,VALID,0,VALID,24.0253,VALID,329,VALID,0.340625,
2012-12-21, 01:18:05,VALID,1008.01,VALID,0,VALID,104,VALID,0,VALID,23.9863,VALID,329,VALID,0.418359,
2012-12-21, 01:19:05,VALID,1008.03,VALID,0,VALID,104,VALID,0,VALID,23.9668,VALID,329,VALID,0.529297,
2012-12-21, 01:20:05,VALID,1008.04,VALID,0,VALID,104,VALID,0,VALID,23.9863,VALID,82,VALID,0.504297,
2012-12-21, 01:21:05,VALID,1008.02,VALID,0,VALID,104,VALID,0,VALID,24.0235,VALID,114,VALID,0.549609,
2012-12-21, 01:22:05,VALID,1008,VALID,0,VALID,104,VALID,0,VALID,24.0643,VALID,114,VALID,0.477344,
2012-12-21, 01:23:05,VALID,1007.96,VALID,0,VALID,104,VALID,0,VALID,24.0429,VALID,114,VALID,0.323828,
2012-12-21, 01:24:05,VALID,1007.93,VALID,0,VALID,104,VALID,0,VALID,24.0643,VALID,114,VALID,0.4125,
2012-12-21, 01:25:05,VALID,1007.9,VALID,0,VALID,104,VALID,0,VALID,24.0837,VALID,114,VALID,0.0234375,
2012-12-21, 01:26:05,VALID,1007.9,VALID,0,VALID,104,VALID,0,VALID,24.0837,VALID,114,VALID,0,
2012-12-21, 01:27:05,VALID,1007.89,VALID,0,VALID,104,VALID,0,VALID,24.0624,VALID,114,VALID,0.223828,
2012-12-21, 01:28:05,VALID,1007.9,VALID,0,VALID,104,VALID,0,VALID,24.0643,VALID,114,VALID,0.387109,
2012-12-21, 01:29:05,VALID,1007.89,VALID,0,VALID,104,VALID,0,VALID,24.0448,VALID,114,VALID,0,
2012-12-21, 01:30:05,VALID,1007.9,VALID,0,VALID,104,VALID,0,VALID,24.0253,VALID,114,VALID,0,
2012-12-21, 01:31:05,VALID,1007.88,VALID,0,VALID,104,VALID,0,VALID,24.0058,VALID,114,VALID,0,
2012-12-21, 01:32:05,VALID,1007.86,VALID,0,VALID,104,VALID,0.112112,VALID,23.9863,VALID,114,VALID,0.121484,
2012-12-21, 01:33:05,VALID,1007.85,VALID,0,VALID,104,VALID,0,VALID,23.9668,VALID,114,VALID,0.276563,
2012-12-21, 01:34:05,VALID,1007.86,VALID,0,VALID,104,VALID,0,VALID,23.9473,VALID,114,VALID,0.179688,
2012-12-21, 01:35:05,VALID,1007.84,VALID,0,VALID,104,VALID,0,VALID,23.9473,VALID,114,VALID,0.308984,
2012-12-21, 01:36:05,VALID,1007.85,VALID,0,VALID,104,VALID,0,VALID,23.9278,VALID,114,VALID,0.217969,
2012-12-21, 01:37:05,VALID,1007.84,VALID,0,VALID,104,VALID,0,VALID,23.9084,VALID,114,VALID,0,
2012-12-21, 01:38:05,VALID,1007.83,VALID,0,VALID,104,VALID,0,VALID,23.8889,VALID,114,VALID,0,
2012-12-21, 01:39:05,VALID,1007.81,VALID,0,VALID,104,VALID,0,VALID,23.9084,VALID,114,VALID,0,
2012-12-21, 01:40:05,VALID,1007.83,VALID,0,VALID,104,VALID,0,VALID,23.8889,VALID,114,VALID,0,
2012-12-21, 01:41:05,VALID,1007.81,VALID,0,VALID,104,VALID,0,VALID,23.8694,VALID,114,VALID,0,
2012-12-21, 01:42:05,VALID,1007.8,VALID,0,VALID,104,VALID,0,VALID,23.8694,VALID,114,VALID,0,
2012-12-21, 01:43:05,VALID,1007.8,VALID,0,VALID,104,VALID,0.112112,VALID,23.9084,VALID,114,VALID,0.357031,
2012-12-21, 01:44:05,VALID,1007.72,VALID,0,VALID,104,VALID,0,VALID,23.9084,VALID,114,VALID,0.20625,
2012-12-21, 01:45:05,VALID,1007.73,VALID,0,VALID,104,VALID,0,VALID,23.9084,VALID,114,VALID,0.175,
2012-12-21, 01:46:05,VALID,1007.71,VALID,0,VALID,104,VALID,0,VALID,23.8676,VALID,114,VALID,0.346484,
2012-12-21, 01:47:04,VALID,1007.69,VALID,0,VALID,104,VALID,0,VALID,23.8889,VALID,88,VALID,0.394922,
2012-12-21, 01:48:04,VALID,1007.64,VALID,0,VALID,104,VALID,0,VALID,23.8889,VALID,88,VALID,0.361719,
2012-12-21, 01:49:04,VALID,1007.65,VALID,0,VALID,104,VALID,0,VALID,23.8481,VALID,88,VALID,0.451172,
2012-12-21, 01:50:04,VALID,1007.62,VALID,0,VALID,104,VALID,0,VALID,23.8499,VALID,88,VALID,0.293359,
2012-12-21, 01:51:04,VALID,1007.63,VALID,0,VALID,104,VALID,0,VALID,23.8286,VALID,88,VALID,0.275,
2012-12-21, 01:52:04,VALID,1007.63,VALID,0,VALID,104,VALID,0,VALID,23.8499,VALID,88,VALID,0.344141,
2012-12-21, 01:53:04,VALID,1007.62,VALID,0,VALID,104,VALID,0.112112,VALID,23.8286,VALID,88,VALID,0.0109375,
2012-12-21, 01:54:04,VALID,1007.6,VALID,0,VALID,104,VALID,0,VALID,23.8499,VALID,45,VALID,0.541797,
2012-12-21, 01:55:04,VALID,1007.6,VALID,0,VALID,104,VALID,0,VALID,23.8499,VALID,37,VALID,0.480469,
2012-12-21, 01:56:04,VALID,1007.6,VALID,0,VALID,104,VALID,0,VALID,23.8499,VALID,37,VALID,0.482031,
2012-12-21, 01:57:04,VALID,1007.57,VALID,0,VALID,104,VALID,0,VALID,23.8499,VALID,37,VALID,0.332812,
2012-12-21, 01:58:04,VALID,1007.57,VALID,0,VALID,104,VALID,0,VALID,23.8304,VALID,37,VALID,0.096875,
2012-12-21, 01:59:04,VALID,1007.57,VALID,0,VALID,104,VALID,0,VALID,23.8304,VALID,37,VALID,0,
2012-12-21, 02:00:04,VALID,1007.55,VALID,0,VALID,104,VALID,0,VALID,23.8109,VALID,37,VALID,0,
2012-12-21, 02:01:04,VALID,1007.54,VALID,0,VALID,104,VALID,0.112112,VALID,23.8109,VALID,37,VALID,0,
2012-12-21, 02:02:04,VALID,1007.51,VALID,0,VALID,104,VALID,0,VALID,23.7914,VALID,37,VALID,0,
2012-12-21, 02:03:04,VALID,1007.5,VALID,0,VALID,104,VALID,0.112112,VALID,23.772,VALID,37,VALID,0,
2012-12-21, 02:04:04,VALID,1007.5,VALID,0,VALID,104,VALID,0,VALID,23.772,VALID,37,VALID,0,
2012-12-21, 02:05:04,VALID,1007.49,VALID,0,VALID,104,VALID,0.112112,VALID,23.7507,VALID,37,VALID,0,
2012-12-21, 02:06:04,VALID,1007.49,VALID,0,VALID,104,VALID,0,VALID,23.7312,VALID,37,VALID,0,
2012-12-21, 02:07:04,VALID,1007.48,VALID,0,VALID,104,VALID,0.112112,VALID,23.7525,VALID,37,VALID,0.103906,
2012-12-21, 02:08:04,VALID,1007.49,VALID,0,VALID,104,VALID,0,VALID,23.733,VALID,37,VALID,0.221094,
2012-12-21, 02:09:04,VALID,1007.49,VALID,0,VALID,104,VALID,0,VALID,23.7117,VALID,37,VALID,0.175391,
2012-12-21, 02:10:04,VALID,1007.48,VALID,0,VALID,104,VALID,0.112112,VALID,23.7117,VALID,37,VALID,0.328125,
2012-12-21, 02:11:04,VALID,1007.45,VALID,0,VALID,104,VALID,0,VALID,23.6922,VALID,37,VALID,0.207031,
2012-12-21, 02:12:04,VALID,1007.45,VALID,0,VALID,104,VALID,0,VALID,23.6727,VALID,37,VALID,0.190234,
2012-12-21, 02:13:04,VALID,1007.4,VALID,0,VALID,104,VALID,0,VALID,23.694,VALID,37,VALID,0.179297,
2012-12-21, 02:14:04,VALID,1007.39,VALID,0,VALID,104,VALID,0,VALID,23.694,VALID,37,VALID,0,
2012-12-21, 02:15:04,VALID,1007.37,VALID,0,VALID,104,VALID,0,VALID,23.694,VALID,37,VALID,0,
2012-12-21, 02:16:04,VALID,1007.36,VALID,0,VALID,104,VALID,0,VALID,23.6727,VALID,37,VALID,0,
2012-12-21, 02:17:04,VALID,1007.32,VALID,0,VALID,104,VALID,0.112112,VALID,23.6922,VALID,37,VALID,0.158984,
2012-12-21, 02:18:04,VALID,1007.34,VALID,0,VALID,104,VALID,0.112112,VALID,23.7135,VALID,37,VALID,0.139844,
2012-12-21, 02:19:04,VALID,1007.34,VALID,0,VALID,104,VALID,0,VALID,23.7135,VALID,37,VALID,0.113281,
2012-12-21, 02:20:04,VALID,1007.34,VALID,0,VALID,104,VALID,0.112112,VALID,23.7135,VALID,37,VALID,0.0648438,
2012-12-21, 02:21:04,VALID,1007.33,VALID,0,VALID,104,VALID,0,VALID,23.6922,VALID,37,VALID,0.247656,
2012-12-21, 02:22:04,VALID,1007.32,VALID,0,VALID,104,VALID,0.112112,VALID,23.7117,VALID,37,VALID,0.469531,
2012-12-21, 02:23:04,VALID,1007.34,VALID,0,VALID,104,VALID,0,VALID,23.7117,VALID,37,VALID,0.479297,
2012-12-21, 02:24:04,VALID,1007.35,VALID,0,VALID,104,VALID,0,VALID,23.7135,VALID,37,VALID,0.527734,
2012-12-21, 02:25:04,VALID,1007.35,VALID,0,VALID,104,VALID,0.112112,VALID,23.7135,VALID,37,VALID,0.349609,
2012-12-21, 02:26:04,VALID,1007.35,VALID,0,VALID,104,VALID,0,VALID,23.733,VALID,37,VALID,0.395703,
2012-12-21, 02:27:04,VALID,1007.38,VALID,0,VALID,104,VALID,0,VALID,23.733,VALID,37,VALID,0.103125,
2012-12-21, 02:28:04,VALID,1007.39,VALID,0,VALID,104,VALID,0,VALID,23.694,VALID,37,VALID,0.265234,
2012-12-21, 02:29:04,VALID,1007.37,VALID,0,VALID,104,VALID,0,VALID,23.6922,VALID,37,VALID,0.0925781,
2012-12-21, 02:30:04,VALID,1007.39,VALID,0,VALID,104,VALID,0.112112,VALID,23.7117,VALID,37,VALID,0.283594,
2012-12-21, 02:31:04,VALID,1007.41,VALID,0,VALID,104,VALID,0,VALID,23.7135,VALID,37,VALID,0.318359,
2012-12-21, 02:32:04,VALID,1007.41,VALID,0,VALID,104,VALID,0,VALID,23.7135,VALID,100,VALID,0.671875,
2012-12-21, 02:33:04,VALID,1007.4,VALID,0,VALID,104,VALID,0,VALID,23.7135,VALID,163,VALID,0.793359,
2012-12-21, 02:34:04,VALID,1007.39,VALID,0,VALID,104,VALID,0,VALID,23.6727,VALID,170,VALID,0.791016,
2012-12-21, 02:35:04,VALID,1007.42,VALID,0,VALID,104,VALID,0,VALID,23.6745,VALID,174,VALID,0.721875,
2012-12-21, 02:36:04,VALID,1007.4,VALID,0,VALID,104,VALID,0,VALID,23.6745,VALID,175,VALID,0.621094,
2012-12-21, 02:37:04,VALID,1007.4,VALID,0,VALID,104,VALID,0,VALID,23.6356,VALID,175,VALID,0.820703,
2012-12-21, 02:38:04,VALID,1007.4,VALID,0,VALID,104,VALID,0,VALID,23.6356,VALID,174,VALID,0.676953,
2012-12-21, 02:39:04,VALID,1007.39,VALID,0,VALID,104,VALID,0.112112,VALID,23.6161,VALID,154,VALID,0.769922,
2012-12-21, 02:40:04,VALID,1007.4,VALID,0,VALID,104,VALID,0,VALID,23.6161,VALID,151,VALID,0.771484,
2012-12-21, 02:41:04,VALID,1007.35,VALID,0,VALID,104,VALID,0.112112,VALID,23.5948,VALID,127,VALID,0.635156,
2012-12-21, 02:42:04,VALID,1007.37,VALID,0,VALID,104,VALID,0,VALID,23.5966,VALID,119,VALID,0.864062,
2012-12-21, 02:43:04,VALID,1007.34,VALID,0,VALID,104,VALID,0,VALID,23.5948,VALID,103,VALID,0.483594,
2012-12-21, 02:44:04,VALID,1007.31,VALID,0,VALID,104,VALID,0,VALID,23.6143,VALID,93,VALID,0.860937,
2012-12-21, 02:45:04,VALID,1007.28,VALID,0,VALID,104,VALID,0,VALID,23.6143,VALID,125,VALID,0.657031,
2012-12-21, 02:46:04,VALID,1007.29,VALID,0,VALID,104,VALID,0,VALID,23.6356,VALID,108,VALID,0.610547,
2012-12-21, 02:47:04,VALID,1007.29,VALID,0,VALID,104,VALID,0,VALID,23.6356,VALID,107,VALID,0.529688,
2012-12-21, 02:48:04,VALID,1007.28,VALID,0,VALID,104,VALID,0,VALID,23.655,VALID,124,VALID,1.06367,
2012-12-21, 02:49:04,VALID,1007.29,VALID,0,VALID,104,VALID,0,VALID,23.6356,VALID,122,VALID,0.880078,
2012-12-21, 02:50:04,VALID,1007.28,VALID,0,VALID,104,VALID,0,VALID,23.655,VALID,117,VALID,0.709375,
2012-12-21, 02:51:04,VALID,1007.27,VALID,0,VALID,104,VALID,0,VALID,23.6568,VALID,122,VALID,0.843359,
2012-12-21, 02:52:04,VALID,1007.28,VALID,0,VALID,104,VALID,0,VALID,23.6161,VALID,122,VALID,0.701563,
2012-12-21, 02:53:04,VALID,1007.27,VALID,0,VALID,104,VALID,0,VALID,23.655,VALID,91,VALID,0.637109,
2012-12-21, 02:54:04,VALID,1007.26,VALID,0,VALID,104,VALID,0,VALID,23.655,VALID,90,VALID,0.791016,
2012-12-21, 02:55:04,VALID,1007.28,VALID,0,VALID,104,VALID,0,VALID,23.6356,VALID,88,VALID,1.34766,
2012-12-21, 02:56:04,VALID,1007.3,VALID,0,VALID,104,VALID,0,VALID,23.655,VALID,99,VALID,1.32227,
2012-12-21, 02:57:04,VALID,1007.31,VALID,0,VALID,104,VALID,0,VALID,23.655,VALID,85,VALID,1.12695,
2012-12-21, 02:58:04,VALID,1007.31,VALID,0,VALID,104,VALID,0,VALID,23.6356,VALID,92,VALID,0.828125,
2012-12-21, 02:59:04,VALID,1007.31,VALID,0,VALID,104,VALID,0,VALID,23.6356,VALID,91,VALID,1.07852,
2012-12-21, 03:00:04,VALID,1007.32,VALID,0,VALID,104,VALID,0,VALID,23.6356,VALID,93,VALID,1.04297,
2012-12-21, 03:01:04,VALID,1007.33,VALID,0,VALID,104,VALID,0,VALID,23.6356,VALID,94,VALID,1.19219,
2012-12-21, 03:02:04,VALID,1007.33,VALID,0,VALID,104,VALID,0,VALID,23.6356,VALID,82,VALID,1.23359,
2012-12-21, 03:03:04,VALID,1007.3,VALID,0,VALID,104,VALID,0,VALID,23.6356,VALID,94,VALID,0.689062,
2012-12-21, 03:04:04,VALID,1007.3,VALID,0,VALID,104,VALID,0,VALID,23.6161,VALID,86,VALID,0.783203,
2012-12-21, 03:05:04,VALID,1007.3,VALID,0,VALID,104,VALID,0,VALID,23.6161,VALID,78,VALID,0.627734,
2012-12-21, 03:06:04,VALID,1007.31,VALID,0,VALID,104,VALID,0,VALID,23.6356,VALID,77,VALID,0.844141,
2012-12-21, 03:07:04,VALID,1007.29,VALID,0,VALID,104,VALID,0,VALID,23.655,VALID,81,VALID,0.626953,
2012-12-21, 03:08:04,VALID,1007.28,VALID,0,VALID,104,VALID,0,VALID,23.6356,VALID,84,VALID,0.490234,
2012-12-21, 03:09:04,VALID,1007.28,VALID,0,VALID,104,VALID,0,VALID,23.6356,VALID,84,VALID,0.426172,
2012-12-21, 03:10:04,VALID,1007.26,VALID,0,VALID,104,VALID,0,VALID,23.655,VALID,85,VALID,0.382422,
2012-12-21, 03:11:04,VALID,1007.26,VALID,0,VALID,104,VALID,0,VALID,23.6356,VALID,108,VALID,0.658594,
2012-12-21, 03:12:04,VALID,1007.23,VALID,0,VALID,104,VALID,0,VALID,23.6161,VALID,107,VALID,0.590234,
2012-12-21, 03:13:04,VALID,1007.21,VALID,0,VALID,104,VALID,0,VALID,23.5966,VALID,109,VALID,0.760938,
2012-12-21, 03:14:04,VALID,1007.2,VALID,0,VALID,104,VALID,0,VALID,23.5966,VALID,114,VALID,0.424219,
2012-12-21, 03:15:04,VALID,1007.21,VALID,0,VALID,104,VALID,0,VALID,23.5966,VALID,127,VALID,0.913281,
2012-12-21, 03:16:04,VALID,1007.19,VALID,0,VALID,104,VALID,0,VALID,23.5966,VALID,116,VALID,0.611328,
2012-12-21, 03:17:04,VALID,1007.17,VALID,0,VALID,104,VALID,0,VALID,23.5576,VALID,106,VALID,1.11289,
2012-12-21, 03:18:04,VALID,1007.18,VALID,0,VALID,104,VALID,0,VALID,23.5576,VALID,119,VALID,1.33906,
2012-12-21, 03:19:04,VALID,1007.17,VALID,0,VALID,104,VALID,0,VALID,23.5576,VALID,131,VALID,1.03633,
2012-12-21, 03:20:04,VALID,1007.13,VALID,0,VALID,104,VALID,0,VALID,23.5576,VALID,121,VALID,0.983203,
2012-12-21, 03:21:04,VALID,1007.14,VALID,0,VALID,104,VALID,0,VALID,23.5381,VALID,122,VALID,0.246094,
2012-12-21, 03:22:04,VALID,1007.13,VALID,0,VALID,104,VALID,0,VALID,23.5576,VALID,122,VALID,0.558594,
2012-12-21, 03:23:04,VALID,1007.07,VALID,0,VALID,104,VALID,0,VALID,23.5381,VALID,124,VALID,0.562891,
2012-12-21, 03:24:04,VALID,1007.1,VALID,0,VALID,104,VALID,0,VALID,23.4992,VALID,126,VALID,0.571484,
2012-12-21, 03:25:04,VALID,1007.09,VALID,0,VALID,104,VALID,0,VALID,23.5186,VALID,127,VALID,0.393359,
2012-12-21, 03:26:04,VALID,1007.09,VALID,0,VALID,104,VALID,0,VALID,23.5186,VALID,126,VALID,0.316016,
2012-12-21, 03:27:04,VALID,1007.11,VALID,0,VALID,104,VALID,0,VALID,23.4992,VALID,145,VALID,0.667969,
2012-12-21, 03:28:04,VALID,1007.11,VALID,0,VALID,104,VALID,0,VALID,23.5186,VALID,146,VALID,0.628906,
2012-12-21, 03:29:04,VALID,1007.12,VALID,0,VALID,104,VALID,0,VALID,23.5186,VALID,143,VALID,0.437109,
2012-12-21, 03:30:04,VALID,1007.11,VALID,0,VALID,104,VALID,0,VALID,23.5186,VALID,104,VALID,1.1293,
2012-12-21, 03:31:04,VALID,1007.13,VALID,0,VALID,104,VALID,0,VALID,23.5381,VALID,109,VALID,0.735547,
2012-12-21, 03:32:04,VALID,1007.13,VALID,0,VALID,104,VALID,0,VALID,23.5576,VALID,113,VALID,0.886328,
2012-12-21, 03:33:04,VALID,1007.14,VALID,0,VALID,104,VALID,0,VALID,23.5381,VALID,98,VALID,1.01836,
2012-12-21, 03:34:04,VALID,1007.14,VALID,0,VALID,104,VALID,0,VALID,23.5381,VALID,79,VALID,1.56055,
2012-12-21, 03:35:04,VALID,1007.14,VALID,0,VALID,104,VALID,0,VALID,23.5576,VALID,83,VALID,0.969531,
2012-12-21, 03:36:04,VALID,1007.13,VALID,0,VALID,104,VALID,0,VALID,23.5594,VALID,74,VALID,0.924609,
2012-12-21, 03:37:04,VALID,1007.12,VALID,0,VALID,104,VALID,0,VALID,23.5789,VALID,90,VALID,1.21172,
2012-12-21, 03:38:04,VALID,1007.13,VALID,0,VALID,104,VALID,0,VALID,23.5381,VALID,82,VALID,0.681641,
2012-12-21, 03:39:04,VALID,1007.1,VALID,0,VALID,104,VALID,0,VALID,23.5399,VALID,89,VALID,1.23125,
2012-12-21, 03:40:04,VALID,1007.07,VALID,0,VALID,104,VALID,0,VALID,23.5186,VALID,91,VALID,0.85,
2012-12-21, 03:41:04,VALID,1007.08,VALID,0,VALID,104,VALID,0,VALID,23.5399,VALID,80,VALID,1.18633,
2012-12-21, 03:42:04,VALID,1007.05,VALID,0,VALID,104,VALID,0,VALID,23.5186,VALID,74,VALID,0.798047,
2012-12-21, 03:43:04,VALID,1007.04,VALID,0,VALID,104,VALID,0,VALID,23.4992,VALID,90,VALID,1.06445,
2012-12-21, 03:44:04,VALID,1007.05,VALID,0,VALID,104,VALID,0,VALID,23.4797,VALID,76,VALID,1.52852,
2012-12-21, 03:45:04,VALID,1007.05,VALID,0,VALID,104,VALID,0,VALID,23.4797,VALID,94,VALID,0.925781,
2012-12-21, 03:46:04,VALID,1007.02,VALID,0,VALID,104,VALID,0,VALID,23.4797,VALID,94,VALID,0.489453,
2012-12-21, 03:47:04,VALID,1007.05,VALID,0,VALID,104,VALID,0,VALID,23.4797,VALID,82,VALID,0.717578,
2012-12-21, 03:48:04,VALID,1007.03,VALID,0,VALID,104,VALID,0,VALID,23.4797,VALID,86,VALID,1.10352,
2012-12-21, 03:49:04,VALID,1007.03,VALID,0,VALID,104,VALID,0,VALID,23.4602,VALID,87,VALID,0.728125,
2012-12-21, 03:50:04,VALID,1007.03,VALID,0,VALID,104,VALID,0,VALID,23.4602,VALID,92,VALID,1.73164,
2012-12-21, 03:51:04,VALID,1007.04,VALID,0,VALID,104,VALID,0,VALID,23.4602,VALID,117,VALID,1.69766,
2012-12-21, 03:52:04,VALID,1007,VALID,0,VALID,104,VALID,0,VALID,23.4602,VALID,95,VALID,1.75586,
2012-12-21, 03:53:04,VALID,1007.02,VALID,0,VALID,104,VALID,0,VALID,23.4407,VALID,90,VALID,1.28555,
2012-12-21, 03:54:04,VALID,1006.96,VALID,0,VALID,104,VALID,0,VALID,23.4212,VALID,94,VALID,1.54297,
2012-12-21, 03:55:04,VALID,1006.97,VALID,0,VALID,104,VALID,0,VALID,23.4212,VALID,113,VALID,1.50039,